Regional Weather Roundup
Issued by NWS Portland, ME

Home | Current Version | Previous Version | Text Only | Print | Product List | Glossary On
Versions: 1 2 3 4 5 6 7 8 9 10 11 12 13 14 15 16 17 18 19 20 21 22 23 24 25 26 27 28 29 30 31 32 33 34 35 36 37 38 39 40 41 42 43 44 45 46 47 48 49 50
000
ASUS41 KGYX 130110
RWRGYX
WEATHER ROUNDUP FOR MAINE AND NEW HAMPSHIRE
NATIONAL WEATHER SERVICE GRAY ME
900 PM EDT SAT JUL 12 2014

MEZ002-005-006-010-012-015-018-020-021-024-026-027-029-130200-
MAINE

CITY           SKY/WX    TMP DP  RH WIND       PRES   REMARKS
PORTLAND       CLEAR     67  60  78 S7        30.13R
SANFORD        CLEAR     68  55  64 S5        30.12F
BAR HARBOR     CLEAR     63  61  94 S9        30.14R
WISCASSET      CLEAR     68  61  78 CALM      30.16R
ROCKLAND       CLEAR     64  61  88 SW6       30.14R
FRYEBURG       PTCLDY    73  62  68 S8        30.11S
LEWISTONAUBURN CLEAR     66  57  72 S7        30.13F
AUGUSTA        CLEAR     67  58  72 S7        30.13R
WATERVILLE     CLEAR     70  55  60 S7        30.08S
BANGOR         PTCLDY    69  59  70 S8        30.12R
GREENVILLE       N/A     69  57  65 S6        30.11S
MILLINOCKET    MOCLDY    73  56  54 VRB3      30.09S
HOULTON        CLEAR     65  58  78 S5        30.07R
PRESQUE ISLE   MOCLDY    66  55  68 S3        30.07R
FRENCHVILLE    CLOUDY    69  52  54 SW6       30.05S
CARIBOU        MOCLDY    71  56  58 CALM      30.05S
$$

NHZ002-005-008-009-011-012-014-130200-
NEW HAMPSHIRE

CITY           SKY/WX    TMP DP  RH WIND       PRES   REMARKS
ROCHESTER      CLEAR     71  58  63 CALM      30.12S
NASHUA         PTCLDY    77  61  57 SE3       30.11S
MANCHESTER     PTCLDY    76  59  55 SE6       30.09S
CONCORD        CLEAR     73  61  65 SE7       30.10S
LACONIA        CLEAR     75  61  60 S8        30.09F
PLYMOUTH       FAIR      71  66  85 CALM      30.09S
BERLIN         PTCLDY    66  62  87 CALM      30.11S
WHITEFIELD     MOCLDY    70  63  78 CALM      30.10F
JAFFREY        PTCLDY    74  61  63 SW6       30.15S
LEBANON        CLEAR     71  64  78 SE5       30.08S
MT WASHINGTON  FOG       52  52 100 SW28        N/A  VSB 1/2
$$

VTZ005-007-008-130200-
VERMONT

CITY           SKY/WX    TMP DP  RH WIND       PRES   REMARKS
ST JOHNSBURY     N/A     73  64  73 MISG      30.06S
MONTPELIER     MOCLDY    74  61  63 S7        30.13S
BURLINGTON     MOCLDY    79  65  62 S8        30.04R
$$

MAZ007-012-024-CTZ003-RIZ002-NYZ038-NYZ072-130200-
SOUTHERN NEW ENGLAND AND NY

CITY           SKY/WX    TMP DP  RH WIND       PRES   REMARKS
BOSTON         PTCLDY    75  62  64 S13       30.13R
WORCESTER      CLEAR     73  61  65 SW9       30.16S
NANTUCKET      CLEAR     65  59  81 S9        30.18F
PROVIDENCE     PTCLDY    70  60  70 S7        30.17R
HARTFORD       PTCLDY    78  56  46 S10       30.12S
ALBANY         MOCLDY    81  64  56 S9        30.07S
NEW YORK CITY  PTCLDY    74  65  73 S13G18    30.14S
$$

ANZ081-ANZ082-ANZ150-NHZ014-MEZ023>029-130200-
COASTAL MARINE OBSERVATIONS

STATION/POSITION TIME  TEMP    WIND        PRES    WAVE
                       AIR SEA DIR/SP/G            HT/PER
                 (UTC) (F)     (DEG/KT/KT) (MB)    (FT/S)
MOUNT DESERT ROC 0100   59                 1020.8R
MATINICUS ROCK   0000          200/ 17/ 17 1020.1S
PORTLAND WX BUOY 0100   63 60  230/  6/  6 1020.2R   2/ 4
WELLS            0100   67 55  200/  7/ 10 1019.2F
ISLE OF SHOALS   0000   68     170/ 18/ 19 1019.3F
JEFFREYS LEDGE   0100      65                N/A     3/ 4
CASHES LEDGE BUO 0100   66 64  190/ 14/ 17 1020.0F   3/ 3
$$

.............KEY..............
   WCI - WIND CHILL
   TC  - TEMPERATURE IN CELSIUS
   VSB - VISIBILITY IN MILES
   HX  - HEAT INDEX
   FAIR- INDICATES FEW OR NO CLOUDS BELOW 12,000 FT, WITH NO
         SIGNIFICANT WEATHER AND/OR OBSTRUCTIONS TO VISIBILITY.





USA.gov is the U.S. government's official web portal to all federal, state and local government web resources and services.